Time,TemperatureF,DewpointF,PressureIn,WindDirection,WindDirectionDegrees,WindSpeedMPH,WindSpeedGustMPH,Humidity,HourlyPrecipIn,Conditions,Clouds,dailyrainin,SoftwareType,DateUTC
2013-01-18 00:02:00,39.7,36.0,30.29,WNW,287,2.0,9.0,86,0.00,,,0.00,meteohub,2013-01-18 06:02:00,
2013-01-18 00:07:00,39.7,36.0,30.30,West,267,2.0,9.0,86,0.00,,,0.00,meteohub,2013-01-18 06:07:00,
2013-01-18 00:12:00,39.6,35.8,30.29,North,4,4.0,6.0,86,0.00,,,0.00,meteohub,2013-01-18 06:12:00,
2013-01-18 00:17:00,39.7,36.0,30.30,NNW,333,2.0,6.0,86,0.00,,,0.00,meteohub,2013-01-18 06:17:00,
2013-01-18 00:22:00,39.7,36.0,30.30,NE,42,3.0,11.0,86,0.00,,,0.00,meteohub,2013-01-18 06:22:00,
2013-01-18 00:27:00,39.6,36.0,30.30,North,10,0.0,11.0,87,0.00,,,0.00,meteohub,2013-01-18 06:27:00,
2013-01-18 00:32:00,39.6,35.8,30.30,NE,41,0.0,11.0,86,0.00,,,0.00,meteohub,2013-01-18 06:32:00,
2013-01-18 00:37:00,39.6,35.8,30.30,SSW,206,3.0,7.0,86,0.00,,,0.00,meteohub,2013-01-18 06:37:00,
2013-01-18 00:42:00,39.6,35.8,30.31,NNE,24,0.0,7.0,86,0.00,,,0.00,meteohub,2013-01-18 06:42:00,
2013-01-18 00:47:00,39.6,35.8,30.31,NNE,17,1.0,10.0,86,0.00,,,0.00,meteohub,2013-01-18 06:47:00,
2013-01-18 00:52:00,39.4,35.6,30.31,WNW,292,0.0,10.0,86,0.00,,,0.00,meteohub,2013-01-18 06:52:00,
2013-01-18 00:57:00,39.4,35.6,30.31,ENE,64,1.0,7.0,86,0.00,,,0.00,meteohub,2013-01-18 06:57:00,
2013-01-18 01:02:00,39.2,35.4,30.31,North,4,0.0,7.0,86,0.00,,,0.00,meteohub,2013-01-18 07:02:00,
2013-01-18 01:07:00,39.2,35.4,30.32,North,354,2.0,6.0,86,0.00,,,0.00,meteohub,2013-01-18 07:07:00,
2013-01-18 01:12:00,39.0,35.2,30.32,NE,48,2.0,6.0,86,0.00,,,0.00,meteohub,2013-01-18 07:12:00,
2013-01-18 01:18:00,39.0,35.2,30.32,NNE,26,2.0,8.0,86,0.00,,,0.00,meteohub,2013-01-18 07:18:00,
2013-01-18 01:23:00,38.8,35.1,30.33,WNW,295,1.0,8.0,86,0.00,,,0.00,meteohub,2013-01-18 07:23:00,
2013-01-18 01:28:00,38.8,35.2,30.33,West,269,1.0,8.0,87,0.00,,,0.00,meteohub,2013-01-18 07:28:00,
2013-01-18 01:33:00,38.8,35.2,30.33,North,8,1.0,7.0,87,0.00,,,0.00,meteohub,2013-01-18 07:33:00,
2013-01-18 01:38:00,38.7,35.1,30.34,NE,42,2.0,4.0,87,0.00,,,0.00,meteohub,2013-01-18 07:38:00,
2013-01-18 01:43:00,38.7,35.1,30.34,NNE,29,0.0,7.0,87,0.00,,,0.00,meteohub,2013-01-18 07:43:00,
2013-01-18 01:48:00,38.7,35.1,30.33,NW,326,5.0,7.0,87,0.00,,,0.00,meteohub,2013-01-18 07:48:00,
2013-01-18 01:53:00,38.5,34.9,30.33,NNE,32,0.0,5.0,87,0.00,,,0.00,meteohub,2013-01-18 07:53:00,
2013-01-18 01:58:00,38.5,34.9,30.34,NNW,342,2.0,8.0,87,0.00,,,0.00,meteohub,2013-01-18 07:58:00,
2013-01-18 02:04:00,38.1,34.5,30.34,NW,324,3.0,8.0,87,0.00,,,0.00,meteohub,2013-01-18 08:04:00,
2013-01-18 02:09:00,38.1,34.5,30.34,NNE,25,2.0,7.0,87,0.00,,,0.00,meteohub,2013-01-18 08:09:00,
2013-01-18 02:14:00,38.1,34.5,30.34,NNW,344,0.0,7.0,87,0.00,,,0.00,meteohub,2013-01-18 08:14:00,
2013-01-18 02:19:00,37.9,34.3,30.34,NE,40,1.0,7.0,87,0.00,,,0.00,meteohub,2013-01-18 08:19:00,
2013-01-18 02:24:00,37.9,34.3,30.34,NW,324,1.0,6.0,87,0.00,,,0.00,meteohub,2013-01-18 08:24:00,
2013-01-18 02:29:00,37.9,34.7,30.34,NNE,23,0.0,6.0,88,0.00,,,0.00,meteohub,2013-01-18 08:29:00,
2013-01-18 02:34:00,37.9,34.3,30.34,NNE,27,1.0,5.0,87,0.00,,,0.00,meteohub,2013-01-18 08:34:00,
2013-01-18 02:39:00,37.8,34.5,30.35,NNE,27,2.0,6.0,88,0.00,,,0.00,meteohub,2013-01-18 08:39:00,
2013-01-18 02:44:00,37.8,34.5,30.35,NE,43,2.0,6.0,88,0.00,,,0.00,meteohub,2013-01-18 08:44:00,
2013-01-18 02:50:00,37.8,34.5,30.35,NNE,12,0.0,6.0,88,0.00,,,0.00,meteohub,2013-01-18 08:50:00,
2013-01-18 02:55:00,37.6,34.3,30.35,NNE,27,0.0,4.0,88,0.00,,,0.00,meteohub,2013-01-18 08:55:00,
2013-01-18 03:00:00,37.4,34.2,30.36,NNE,23,2.0,4.0,88,0.00,,,0.00,meteohub,2013-01-18 09:00:00,
2013-01-18 03:05:00,37.2,34.0,30.36,NNE,16,1.0,5.0,88,0.00,,,0.00,meteohub,2013-01-18 09:05:00,
2013-01-18 03:10:00,37.2,34.0,30.36,NNE,26,1.0,5.0,88,0.00,,,0.00,meteohub,2013-01-18 09:10:00,
2013-01-18 03:15:00,37.2,34.0,30.36,NE,51,0.0,5.0,88,0.00,,,0.00,meteohub,2013-01-18 09:15:00,
2013-01-18 03:20:00,37.0,33.8,30.36,NNE,17,2.0,5.0,88,0.00,,,0.00,meteohub,2013-01-18 09:20:00,
2013-01-18 03:25:00,37.0,33.8,30.36,NNE,20,1.0,4.0,88,0.00,,,0.00,meteohub,2013-01-18 09:25:00,
2013-01-18 03:31:00,36.9,34.0,30.37,NNE,20,0.0,4.0,89,0.00,,,0.00,meteohub,2013-01-18 09:31:00,
2013-01-18 03:36:00,36.9,34.0,30.37,NNE,33,1.0,6.0,89,0.00,,,0.00,meteohub,2013-01-18 09:36:00,
2013-01-18 03:41:00,36.7,33.8,30.37,NNE,33,0.0,6.0,89,0.00,,,0.00,meteohub,2013-01-18 09:41:00,
2013-01-18 03:46:00,36.5,33.6,30.37,NNE,33,0.0,6.0,89,0.00,,,0.00,meteohub,2013-01-18 09:46:00,
2013-01-18 03:51:00,36.3,33.4,30.37,NNE,32,0.0,3.0,89,0.00,,,0.00,meteohub,2013-01-18 09:51:00,
2013-01-18 03:56:00,36.1,33.3,30.37,NNE,32,0.0,3.0,89,0.00,,,0.00,meteohub,2013-01-18 09:56:00,
2013-01-18 04:01:00,36.1,33.4,30.37,NNW,336,0.0,3.0,90,0.00,,,0.00,meteohub,2013-01-18 10:01:00,
2013-01-18 04:06:00,36.0,33.3,30.37,NNE,18,0.0,3.0,90,0.00,,,0.00,meteohub,2013-01-18 10:06:00,
2013-01-18 04:12:00,36.0,33.3,30.38,NNW,334,0.0,3.0,90,0.00,,,0.00,meteohub,2013-01-18 10:12:00,
2013-01-18 04:17:00,35.8,33.1,30.38,NNE,30,0.0,3.0,90,0.00,,,0.00,meteohub,2013-01-18 10:17:00,
2013-01-18 04:22:00,35.6,32.9,30.38,NNE,30,0.0,2.0,90,0.00,,,0.00,meteohub,2013-01-18 10:22:00,
2013-01-18 04:27:00,35.4,32.7,30.38,NNE,30,0.0,2.0,90,0.00,,,0.00,meteohub,2013-01-18 10:27:00,
2013-01-18 04:32:00,35.2,32.9,30.38,NE,34,0.0,2.0,91,0.00,,,0.00,meteohub,2013-01-18 10:32:00,
2013-01-18 04:37:00,35.2,32.9,30.38,NE,34,0.0,2.0,91,0.00,,,0.00,meteohub,2013-01-18 10:37:00,
2013-01-18 04:42:00,35.2,32.9,30.38,NNE,32,0.0,3.0,91,0.00,,,0.00,meteohub,2013-01-18 10:42:00,
2013-01-18 04:47:00,35.1,32.7,30.39,NE,45,1.0,4.0,91,0.00,,,0.00,meteohub,2013-01-18 10:47:00,
2013-01-18 04:52:00,35.1,32.7,30.39,NE,45,0.0,4.0,91,0.00,,,0.00,meteohub,2013-01-18 10:52:00,
2013-01-18 04:57:00,35.1,32.7,30.39,NE,45,0.0,4.0,91,0.00,,,0.00,meteohub,2013-01-18 10:57:00,
2013-01-18 05:02:00,35.1,32.9,30.40,NW,314,1.0,2.0,92,0.00,,,0.00,meteohub,2013-01-18 11:02:00,
2013-01-18 05:07:00,35.1,32.7,30.40,North,349,0.0,2.0,91,0.00,,,0.00,meteohub,2013-01-18 11:07:00,
2013-01-18 05:12:00,35.1,32.9,30.40,NNE,21,0.0,2.0,92,0.00,,,0.00,meteohub,2013-01-18 11:12:00,
2013-01-18 05:17:00,35.1,32.9,30.40,NNE,21,0.0,3.0,92,0.00,,,0.00,meteohub,2013-01-18 11:17:00,
2013-01-18 05:22:00,35.1,32.9,30.40,NNE,21,0.0,3.0,92,0.00,,,0.00,meteohub,2013-01-18 11:22:00,
2013-01-18 05:27:00,35.1,32.9,30.40,NNE,21,0.0,1.0,92,0.00,,,0.00,meteohub,2013-01-18 11:27:00,
2013-01-18 05:32:00,34.9,32.7,30.41,NNE,21,0.0,1.0,92,0.00,,,0.00,meteohub,2013-01-18 11:32:00,
2013-01-18 05:37:00,34.9,32.7,30.41,NNE,21,0.0,1.0,92,0.00,,,0.00,meteohub,2013-01-18 11:37:00,
2013-01-18 05:42:00,34.9,33.1,30.42,ENE,77,1.0,1.0,93,0.00,,,0.00,meteohub,2013-01-18 11:42:00,
2013-01-18 05:47:00,34.9,33.1,30.42,ENE,76,0.0,2.0,93,0.00,,,0.00,meteohub,2013-01-18 11:47:00,
2013-01-18 05:52:00,34.7,32.9,30.42,NNW,343,0.0,2.0,93,0.00,,,0.00,meteohub,2013-01-18 11:52:00,
2013-01-18 05:57:00,34.5,32.7,30.43,North,359,0.0,2.0,93,0.00,,,0.00,meteohub,2013-01-18 11:57:00,
2013-01-18 06:02:00,34.3,32.5,30.43,NNW,343,0.0,2.0,93,0.00,,,0.00,meteohub,2013-01-18 12:02:00,
2013-01-18 06:07:00,34.3,32.5,30.43,NNW,343,0.0,1.0,93,0.00,,,0.00,meteohub,2013-01-18 12:07:00,
2013-01-18 06:12:00,34.2,32.4,30.43,NNW,343,0.0,0.0,93,0.00,,,0.00,meteohub,2013-01-18 12:12:00,
2013-01-18 06:17:00,34.2,32.4,30.44,NNW,343,0.0,1.0,93,0.00,,,0.00,meteohub,2013-01-18 12:17:00,
2013-01-18 06:22:00,34.0,32.2,30.44,NNW,343,0.0,1.0,93,0.00,,,0.00,meteohub,2013-01-18 12:22:00,
2013-01-18 06:28:00,34.0,32.2,30.44,North,359,0.0,1.0,93,0.00,,,0.00,meteohub,2013-01-18 12:28:00,
2013-01-18 06:33:00,34.0,32.2,30.44,NNW,343,0.0,1.0,93,0.00,,,0.00,meteohub,2013-01-18 12:33:00,
2013-01-18 06:38:00,34.0,32.2,30.44,NNW,343,0.0,1.0,93,0.00,,,0.00,meteohub,2013-01-18 12:38:00,
2013-01-18 06:43:00,33.8,32.2,30.44,North,359,0.0,1.0,94,0.00,,,0.00,meteohub,2013-01-18 12:43:00,
2013-01-18 06:48:00,34.0,32.4,30.45,NNW,342,0.0,1.0,94,0.00,,,0.00,meteohub,2013-01-18 12:48:00,
2013-01-18 06:53:00,34.0,32.4,30.45,NW,324,0.0,1.0,94,0.00,,,0.00,meteohub,2013-01-18 12:53:00,
2013-01-18 06:58:00,34.0,32.4,30.45,NNW,336,0.0,1.0,94,0.00,,,0.00,meteohub,2013-01-18 12:58:00,
2013-01-18 07:03:00,34.0,32.4,30.46,NNW,336,0.0,2.0,94,0.00,,,0.00,meteohub,2013-01-18 13:03:00,
2013-01-18 07:08:00,34.2,32.4,30.46,NW,316,0.0,2.0,93,0.00,,,0.00,meteohub,2013-01-18 13:08:00,
2013-01-18 07:13:00,34.2,32.4,30.47,NW,316,0.0,3.0,93,0.00,,,0.00,meteohub,2013-01-18 13:13:00,
2013-01-18 07:19:00,34.3,32.5,30.47,NNW,348,1.0,3.0,93,0.00,,,0.00,meteohub,2013-01-18 13:19:00,
2013-01-18 07:24:00,34.5,32.4,30.47,WNW,291,1.0,5.0,92,0.00,,,0.00,meteohub,2013-01-18 13:24:00,
2013-01-18 07:29:00,34.9,32.7,30.48,WNW,291,0.0,5.0,92,0.00,,,0.00,meteohub,2013-01-18 13:29:00,
2013-01-18 07:34:00,35.1,32.7,30.48,South,172,1.0,5.0,91,0.00,,,0.00,meteohub,2013-01-18 13:34:00,
2013-01-18 07:39:00,35.6,32.9,30.48,NNE,13,0.0,4.0,90,0.00,,,0.00,meteohub,2013-01-18 13:39:00,
2013-01-18 07:44:00,36.1,33.4,30.48,WNW,283,0.0,4.0,90,0.00,,,0.00,meteohub,2013-01-18 13:44:00,
2013-01-18 07:49:00,36.7,33.8,30.49,NW,321,0.0,4.0,89,0.00,,,0.00,meteohub,2013-01-18 13:49:00,
2013-01-18 07:54:00,37.0,33.8,30.49,NNE,27,4.0,4.0,88,0.00,,,0.00,meteohub,2013-01-18 13:54:00,
2013-01-18 07:59:00,37.4,33.6,30.49,NNE,12,2.0,5.0,86,0.00,,,0.00,meteohub,2013-01-18 13:59:00,
2013-01-18 08:04:00,37.9,33.8,30.49,NW,310,0.0,5.0,85,0.00,,,0.00,meteohub,2013-01-18 14:04:00,
2013-01-18 08:10:00,38.5,34.2,30.50,NE,39,1.0,5.0,84,0.00,,,0.00,meteohub,2013-01-18 14:10:00,
2013-01-18 08:15:00,38.8,34.2,30.50,NNE,29,0.0,5.0,83,0.00,,,0.00,meteohub,2013-01-18 14:15:00,
2013-01-18 08:20:00,39.2,33.8,30.50,NNE,19,4.0,5.0,81,0.00,,,0.00,meteohub,2013-01-18 14:20:00,
2013-01-18 08:25:00,39.6,34.2,30.50,North,354,1.0,5.0,81,0.00,,,0.00,meteohub,2013-01-18 14:25:00,
2013-01-18 08:30:00,39.7,34.2,30.51,NNW,331,1.0,5.0,80,0.00,,,0.00,meteohub,2013-01-18 14:30:00,
2013-01-18 08:35:00,40.3,34.3,30.51,SW,218,0.0,6.0,79,0.00,,,0.00,meteohub,2013-01-18 14:35:00,
2013-01-18 08:40:00,40.6,34.3,30.51,ENE,71,2.0,6.0,78,0.00,,,0.00,meteohub,2013-01-18 14:40:00,
2013-01-18 08:45:00,41.0,34.3,30.51,NNE,14,0.0,6.0,77,0.00,,,0.00,meteohub,2013-01-18 14:45:00,
2013-01-18 08:50:00,41.4,34.3,30.51,North,354,4.0,6.0,76,0.00,,,0.00,meteohub,2013-01-18 14:50:00,
2013-01-18 08:55:00,41.5,34.2,30.51,NNE,27,2.0,8.0,75,0.00,,,0.00,meteohub,2013-01-18 14:55:00,
2013-01-18 09:01:00,42.1,34.3,30.51,NE,45,1.0,8.0,74,0.00,,,0.00,meteohub,2013-01-18 15:01:00,
2013-01-18 09:06:00,42.4,35.4,30.52,NW,307,1.0,8.0,76,0.00,,,0.00,meteohub,2013-01-18 15:06:00,
2013-01-18 09:11:00,42.8,35.1,30.52,NNE,17,4.0,5.0,74,0.00,,,0.00,meteohub,2013-01-18 15:11:00,
2013-01-18 09:16:00,43.2,35.4,30.52,North,4,1.0,6.0,74,0.00,,,0.00,meteohub,2013-01-18 15:16:00,
2013-01-18 09:21:00,43.5,35.1,30.52,NNE,16,2.0,6.0,72,0.00,,,0.00,meteohub,2013-01-18 15:21:00,
2013-01-18 09:26:00,44.1,35.6,30.53,NE,50,4.0,6.0,72,0.00,,,0.00,meteohub,2013-01-18 15:26:00,
2013-01-18 09:31:00,44.1,34.9,30.53,NNE,27,3.0,5.0,70,0.00,,,0.00,meteohub,2013-01-18 15:31:00,
2013-01-18 09:36:00,44.1,35.2,30.53,NNE,29,2.0,6.0,71,0.00,,,0.00,meteohub,2013-01-18 15:36:00,
2013-01-18 09:42:00,44.4,35.6,30.53,NW,309,1.0,6.0,71,0.00,,,0.00,meteohub,2013-01-18 15:42:00,
2013-01-18 09:47:00,44.8,36.0,30.52,NNW,331,2.0,7.0,71,0.00,,,0.00,meteohub,2013-01-18 15:47:00,
2013-01-18 09:52:00,45.5,36.7,30.52,NE,51,1.0,7.0,71,0.00,,,0.00,meteohub,2013-01-18 15:52:00,
2013-01-18 09:57:00,46.0,36.5,30.53,NNW,341,0.0,6.0,69,0.00,,,0.00,meteohub,2013-01-18 15:57:00,
2013-01-18 10:02:00,46.6,36.5,30.52,NNE,25,1.0,6.0,68,0.00,,,0.00,meteohub,2013-01-18 16:02:00,
2013-01-18 10:07:00,46.9,37.2,30.52,ENE,60,0.0,3.0,69,0.00,,,0.00,meteohub,2013-01-18 16:07:00,
2013-01-18 10:12:00,47.5,37.4,30.52,WNW,303,2.0,3.0,68,0.00,,,0.00,meteohub,2013-01-18 16:12:00,
2013-01-18 10:17:00,47.5,37.0,30.52,NNE,17,2.0,5.0,67,0.00,,,0.00,meteohub,2013-01-18 16:17:00,
2013-01-18 10:22:00,47.7,36.9,30.52,East,86,2.0,5.0,66,0.00,,,0.00,meteohub,2013-01-18 16:22:00,
2013-01-18 10:27:00,48.0,38.3,30.52,North,354,2.0,5.0,69,0.00,,,0.00,meteohub,2013-01-18 16:27:00,
2013-01-18 10:32:00,48.4,37.6,30.52,NW,322,1.0,5.0,66,0.00,,,0.00,meteohub,2013-01-18 16:32:00,
2013-01-18 10:37:00,48.7,37.0,30.51,East,82,5.0,5.0,64,0.00,,,0.00,meteohub,2013-01-18 16:37:00,
2013-01-18 10:42:00,48.7,38.3,30.51,NNE,29,4.0,7.0,67,0.00,,,0.00,meteohub,2013-01-18 16:42:00,
2013-01-18 10:47:00,48.9,38.5,30.51,North,354,1.0,7.0,67,0.00,,,0.00,meteohub,2013-01-18 16:47:00,
2013-01-18 10:52:00,49.5,38.1,30.51,NE,52,2.0,7.0,65,0.00,,,0.00,meteohub,2013-01-18 16:52:00,
2013-01-18 10:57:00,49.8,38.1,30.51,NE,45,2.0,5.0,64,0.00,,,0.00,meteohub,2013-01-18 16:57:00,
2013-01-18 11:02:00,50.0,38.3,30.51,North,354,4.0,6.0,64,0.00,,,0.00,meteohub,2013-01-18 17:02:00,
2013-01-18 11:07:00,50.0,38.3,30.51,NE,50,2.0,6.0,64,0.00,,,0.00,meteohub,2013-01-18 17:07:00,
2013-01-18 11:12:00,50.4,38.7,30.50,WSW,245,1.0,6.0,64,0.00,,,0.00,meteohub,2013-01-18 17:12:00,
2013-01-18 11:17:00,50.9,38.8,30.50,NNE,25,1.0,6.0,63,0.00,,,0.00,meteohub,2013-01-18 17:17:00,
2013-01-18 11:22:00,51.4,39.2,30.49,NE,43,3.0,6.0,63,0.00,,,0.00,meteohub,2013-01-18 17:22:00,
2013-01-18 11:27:00,51.6,38.7,30.49,NNE,30,2.0,5.0,61,0.00,,,0.00,meteohub,2013-01-18 17:27:00,
2013-01-18 11:32:00,52.0,38.5,30.48,ENE,74,2.0,5.0,60,0.00,,,0.00,meteohub,2013-01-18 17:32:00,
2013-01-18 11:38:00,52.0,38.5,30.48,NW,308,2.0,7.0,60,0.00,,,0.00,meteohub,2013-01-18 17:38:00,
2013-01-18 11:43:00,52.3,38.8,30.48,WNW,299,2.0,7.0,60,0.00,,,0.00,meteohub,2013-01-18 17:43:00,
2013-01-18 11:48:00,52.5,39.0,30.47,NE,35,5.0,7.0,60,0.00,,,0.00,meteohub,2013-01-18 17:48:00,
2013-01-18 11:53:00,52.3,37.9,30.47,ENE,61,1.0,6.0,58,0.00,,,0.00,meteohub,2013-01-18 17:53:00,
2013-01-18 11:58:00,52.7,38.3,30.47,NE,54,3.0,6.0,58,0.00,,,0.00,meteohub,2013-01-18 17:58:00,
2013-01-18 12:03:00,53.1,38.7,30.47,East,95,0.0,6.0,58,0.00,,,0.00,meteohub,2013-01-18 18:03:00,
2013-01-18 12:08:00,53.1,38.7,30.46,North,10,2.0,6.0,58,0.00,,,0.00,meteohub,2013-01-18 18:08:00,
2013-01-18 12:14:00,53.6,39.2,30.46,WNW,295,2.0,6.0,58,0.00,,,0.00,meteohub,2013-01-18 18:14:00,
2013-01-18 12:19:00,54.0,38.1,30.46,SE,139,2.0,6.0,55,0.00,,,0.00,meteohub,2013-01-18 18:19:00,
2013-01-18 12:24:00,54.3,38.5,30.45,NW,313,1.0,6.0,55,0.00,,,0.00,meteohub,2013-01-18 18:24:00,
2013-01-18 12:29:00,54.9,38.5,30.45,SSW,196,1.0,7.0,54,0.00,,,0.00,meteohub,2013-01-18 18:29:00,
2013-01-18 12:34:00,55.2,37.9,30.45,NNE,13,4.0,7.0,52,0.00,,,0.00,meteohub,2013-01-18 18:34:00,
2013-01-18 12:39:00,54.9,38.1,30.45,North,354,2.0,7.0,53,0.00,,,0.00,meteohub,2013-01-18 18:39:00,
2013-01-18 12:44:00,54.9,38.1,30.44,North,8,2.0,7.0,53,0.00,,,0.00,meteohub,2013-01-18 18:44:00,
2013-01-18 12:50:00,55.2,37.4,30.44,NE,36,2.0,7.0,51,0.00,,,0.00,meteohub,2013-01-18 18:50:00,
2013-01-18 12:55:00,55.6,38.3,30.44,NE,41,3.0,7.0,52,0.00,,,0.00,meteohub,2013-01-18 18:55:00,
2013-01-18 13:00:00,55.8,37.9,30.44,NNE,28,3.0,6.0,51,0.00,,,0.00,meteohub,2013-01-18 19:00:00,
2013-01-18 13:05:00,55.9,36.5,30.43,North,4,1.0,7.0,48,0.00,,,0.00,meteohub,2013-01-18 19:05:00,
2013-01-18 13:10:00,55.9,36.5,30.43,ENE,64,5.0,9.0,48,0.00,,,0.00,meteohub,2013-01-18 19:10:00,
2013-01-18 13:15:00,55.9,37.0,30.43,East,88,1.0,9.0,49,0.00,,,0.00,meteohub,2013-01-18 19:15:00,
2013-01-18 13:20:00,55.9,37.0,30.43,NE,54,0.0,9.0,49,0.00,,,0.00,meteohub,2013-01-18 19:20:00,
2013-01-18 13:25:00,56.3,36.3,30.43,NE,35,1.0,9.0,47,0.00,,,0.00,meteohub,2013-01-18 19:25:00,
2013-01-18 13:31:00,56.7,37.2,30.43,NNE,12,3.0,7.0,48,0.00,,,0.00,meteohub,2013-01-18 19:31:00,
2013-01-18 13:36:00,57.0,37.0,30.43,East,96,1.0,8.0,47,0.00,,,0.00,meteohub,2013-01-18 19:36:00,
2013-01-18 13:41:00,57.4,37.9,30.43,NW,322,1.0,8.0,48,0.00,,,0.00,meteohub,2013-01-18 19:41:00,
2013-01-18 13:46:00,57.6,36.9,30.43,East,85,3.0,8.0,46,0.00,,,0.00,meteohub,2013-01-18 19:46:00,
2013-01-18 13:51:00,57.7,36.0,30.43,NE,48,4.0,6.0,44,0.00,,,0.00,meteohub,2013-01-18 19:51:00,
2013-01-18 13:56:00,57.6,36.3,30.43,North,4,3.0,6.0,45,0.00,,,0.00,meteohub,2013-01-18 19:56:00,
2013-01-18 14:01:00,57.6,35.8,30.42,NE,49,4.0,6.0,44,0.00,,,0.00,meteohub,2013-01-18 20:01:00,
2013-01-18 14:07:00,57.6,35.8,30.42,NNE,27,4.0,7.0,44,0.00,,,0.00,meteohub,2013-01-18 20:07:00,
2013-01-18 14:12:00,57.7,35.4,30.42,ENE,77,4.0,7.0,43,0.00,,,0.00,meteohub,2013-01-18 20:12:00,
2013-01-18 14:17:00,57.9,35.6,30.42,ESE,115,0.0,8.0,43,0.00,,,0.00,meteohub,2013-01-18 20:17:00,
2013-01-18 14:22:00,58.6,36.9,30.42,NNE,25,3.0,8.0,44,0.00,,,0.00,meteohub,2013-01-18 20:22:00,
2013-01-18 14:27:00,58.6,35.1,30.42,NE,52,4.0,8.0,41,0.00,,,0.00,meteohub,2013-01-18 20:27:00,
2013-01-18 14:32:00,57.9,34.9,30.42,East,93,2.0,10.0,42,0.00,,,0.00,meteohub,2013-01-18 20:32:00,
2013-01-18 14:37:00,58.3,36.5,30.42,ENE,78,3.0,10.0,44,0.00,,,0.00,meteohub,2013-01-18 20:37:00,
2013-01-18 14:42:00,58.3,35.2,30.42,SSE,149,5.0,10.0,42,0.00,,,0.00,meteohub,2013-01-18 20:42:00,
2013-01-18 14:47:00,58.3,34.0,30.42,ENE,67,8.0,9.0,40,0.00,,,0.00,meteohub,2013-01-18 20:47:00,
2013-01-18 14:53:00,58.3,36.0,30.42,ENE,57,5.0,10.0,43,0.00,,,0.00,meteohub,2013-01-18 20:53:00,
2013-01-18 14:58:00,58.3,34.7,30.42,ENE,61,3.0,10.0,41,0.00,,,0.00,meteohub,2013-01-18 20:58:00,
2013-01-18 15:03:00,58.5,35.4,30.42,NNE,28,2.0,10.0,42,0.00,,,0.00,meteohub,2013-01-18 21:03:00,
2013-01-18 15:08:00,58.6,35.6,30.42,ENE,58,1.0,7.0,42,0.00,,,0.00,meteohub,2013-01-18 21:08:00,
2013-01-18 15:13:00,59.0,35.4,30.41,NNE,18,0.0,7.0,41,0.00,,,0.00,meteohub,2013-01-18 21:13:00,
2013-01-18 15:18:00,59.2,35.4,30.41,NE,39,2.0,5.0,41,0.00,,,0.00,meteohub,2013-01-18 21:18:00,
2013-01-18 15:23:00,59.0,34.7,30.42,NE,35,1.0,5.0,40,0.00,,,0.00,meteohub,2013-01-18 21:23:00,
2013-01-18 15:28:00,58.8,34.5,30.42,ENE,77,1.0,8.0,40,0.00,,,0.00,meteohub,2013-01-18 21:28:00,
2013-01-18 15:34:00,59.0,34.7,30.42,ENE,78,2.0,8.0,40,0.00,,,0.00,meteohub,2013-01-18 21:34:00,
2013-01-18 15:39:00,58.8,33.3,30.42,NE,48,5.0,8.0,38,0.00,,,0.00,meteohub,2013-01-18 21:39:00,
2013-01-18 15:44:00,58.5,32.4,30.42,ENE,64,5.0,5.0,37,0.00,,,0.00,meteohub,2013-01-18 21:44:00,
2013-01-18 15:49:00,58.5,33.6,30.42,East,97,3.0,8.0,39,0.00,,,0.00,meteohub,2013-01-18 21:49:00,
2013-01-18 15:54:00,58.3,33.4,30.42,East,93,3.0,8.0,39,0.00,,,0.00,meteohub,2013-01-18 21:54:00,
2013-01-18 15:59:00,58.3,33.4,30.42,ENE,71,2.0,7.0,39,0.00,,,0.00,meteohub,2013-01-18 21:59:00,
2013-01-18 16:05:00,58.3,33.4,30.42,East,89,5.0,7.0,39,0.00,,,0.00,meteohub,2013-01-18 22:05:00,
2013-01-18 16:10:00,58.1,34.5,30.42,NE,54,2.0,7.0,41,0.00,,,0.00,meteohub,2013-01-18 22:10:00,
2013-01-18 16:15:00,57.9,33.1,30.42,ESE,110,4.0,8.0,39,0.00,,,0.00,meteohub,2013-01-18 22:15:00,
2013-01-18 16:20:00,57.7,33.6,30.42,East,92,1.0,8.0,40,0.00,,,0.00,meteohub,2013-01-18 22:20:00,
2013-01-18 16:25:00,57.6,33.4,30.42,ENE,78,0.0,7.0,40,0.00,,,0.00,meteohub,2013-01-18 22:25:00,
2013-01-18 16:30:00,57.6,34.0,30.42,ENE,58,2.0,6.0,41,0.00,,,0.00,meteohub,2013-01-18 22:30:00,
2013-01-18 16:35:00,57.4,34.5,30.43,NNE,27,1.0,5.0,42,0.00,,,0.00,meteohub,2013-01-18 22:35:00,
2013-01-18 16:40:00,57.0,34.2,30.43,ENE,62,3.0,4.0,42,0.00,,,0.00,meteohub,2013-01-18 22:40:00,
2013-01-18 16:46:00,56.7,33.8,30.43,ENE,69,3.0,4.0,42,0.00,,,0.00,meteohub,2013-01-18 22:46:00,
2013-01-18 16:51:00,56.1,34.0,30.43,ENE,67,1.0,4.0,43,0.00,,,0.00,meteohub,2013-01-18 22:51:00,
2013-01-18 16:56:00,55.8,34.2,30.43,East,84,1.0,4.0,44,0.00,,,0.00,meteohub,2013-01-18 22:56:00,
2013-01-18 17:01:00,55.4,33.3,30.43,ENE,75,0.0,4.0,43,0.00,,,0.00,meteohub,2013-01-18 23:01:00,
2013-01-18 17:06:00,55.0,33.4,30.43,ENE,75,0.0,4.0,44,0.00,,,0.00,meteohub,2013-01-18 23:06:00,
2013-01-18 17:11:00,54.7,33.8,30.43,ENE,75,0.0,2.0,45,0.00,,,0.00,meteohub,2013-01-18 23:11:00,
2013-01-18 17:16:00,54.1,33.8,30.43,ENE,75,0.0,2.0,46,0.00,,,0.00,meteohub,2013-01-18 23:16:00,
2013-01-18 17:22:00,53.8,34.0,30.43,ENE,75,0.0,2.0,47,0.00,,,0.00,meteohub,2013-01-18 23:22:00,
2013-01-18 17:27:00,53.4,34.2,30.43,ENE,75,0.0,1.0,48,0.00,,,0.00,meteohub,2013-01-18 23:27:00,
2013-01-18 17:32:00,52.9,33.8,30.43,ENE,75,0.0,2.0,48,0.00,,,0.00,meteohub,2013-01-18 23:32:00,
2013-01-18 17:37:00,52.5,34.0,30.44,ENE,77,0.0,2.0,49,0.00,,,0.00,meteohub,2013-01-18 23:37:00,
2013-01-18 17:42:00,52.3,34.2,30.44,ENE,77,1.0,2.0,50,0.00,,,0.00,meteohub,2013-01-18 23:42:00,
2013-01-18 17:47:00,52.2,34.2,30.44,ENE,77,2.0,2.0,50,0.00,,,0.00,meteohub,2013-01-18 23:47:00,
2013-01-18 17:52:00,52.0,34.3,30.44,ENE,77,0.0,2.0,51,0.00,,,0.00,meteohub,2013-01-18 23:52:00,
2013-01-18 17:57:00,51.6,34.5,30.44,ENE,77,1.0,2.0,52,0.00,,,0.00,meteohub,2013-01-18 23:57:00,
2013-01-18 18:02:00,51.4,34.3,30.44,East,86,0.0,2.0,52,0.00,,,0.00,meteohub,2013-01-19 00:02:00,
2013-01-18 18:07:00,51.3,34.2,30.44,East,86,0.0,2.0,52,0.00,,,0.00,meteohub,2013-01-19 00:07:00,
2013-01-18 18:12:00,51.1,34.5,30.44,East,91,1.0,2.0,53,0.00,,,0.00,meteohub,2013-01-19 00:12:00,
2013-01-18 18:17:00,50.7,34.2,30.44,ENE,70,2.0,2.0,53,0.00,,,0.00,meteohub,2013-01-19 00:17:00,
2013-01-18 18:22:00,50.5,34.5,30.44,East,87,1.0,3.0,54,0.00,,,0.00,meteohub,2013-01-19 00:22:00,
2013-01-18 18:27:00,50.2,34.7,30.45,East,98,2.0,3.0,55,0.00,,,0.00,meteohub,2013-01-19 00:27:00,
2013-01-18 18:32:00,50.0,34.9,30.44,ENE,71,2.0,5.0,56,0.00,,,0.00,meteohub,2013-01-19 00:32:00,
2013-01-18 18:37:00,49.8,34.3,30.44,East,82,1.0,5.0,55,0.00,,,0.00,meteohub,2013-01-19 00:37:00,
2013-01-18 18:42:00,49.6,34.2,30.44,ENE,76,2.0,5.0,55,0.00,,,0.00,meteohub,2013-01-19 00:42:00,
2013-01-18 18:47:00,49.6,34.5,30.44,ENE,68,0.0,3.0,56,0.00,,,0.00,meteohub,2013-01-19 00:47:00,
2013-01-18 18:52:00,49.5,34.3,30.44,East,83,0.0,3.0,56,0.00,,,0.00,meteohub,2013-01-19 00:52:00,
2013-01-18 18:57:00,49.5,34.3,30.44,East,82,1.0,3.0,56,0.00,,,0.00,meteohub,2013-01-19 00:57:00,
2013-01-18 19:03:00,49.3,34.2,30.44,East,96,2.0,3.0,56,0.00,,,0.00,meteohub,2013-01-19 01:03:00,
2013-01-18 19:08:00,49.3,34.2,30.44,ENE,70,0.0,5.0,56,0.00,,,0.00,meteohub,2013-01-19 01:08:00,
2013-01-18 19:13:00,48.9,34.3,30.44,ENE,75,0.0,5.0,57,0.00,,,0.00,meteohub,2013-01-19 01:13:00,
2013-01-18 19:18:00,48.7,34.2,30.44,East,85,0.0,5.0,57,0.00,,,0.00,meteohub,2013-01-19 01:18:00,
2013-01-18 19:23:00,48.6,34.0,30.44,ENE,77,0.0,4.0,57,0.00,,,0.00,meteohub,2013-01-19 01:23:00,
2013-01-18 19:28:00,48.6,34.0,30.43,ENE,67,1.0,3.0,57,0.00,,,0.00,meteohub,2013-01-19 01:28:00,
2013-01-18 19:34:00,48.4,34.3,30.44,ENE,68,0.0,4.0,58,0.00,,,0.00,meteohub,2013-01-19 01:34:00,
2013-01-18 19:39:00,48.2,34.2,30.44,ENE,75,0.0,4.0,58,0.00,,,0.00,meteohub,2013-01-19 01:39:00,
2013-01-18 19:44:00,48.0,34.0,30.44,ENE,64,1.0,3.0,58,0.00,,,0.00,meteohub,2013-01-19 01:44:00,
2013-01-18 19:49:00,47.8,34.2,30.44,ENE,64,0.0,3.0,59,0.00,,,0.00,meteohub,2013-01-19 01:49:00,
2013-01-18 19:54:00,47.7,34.0,30.44,ENE,64,0.0,2.0,59,0.00,,,0.00,meteohub,2013-01-19 01:54:00,
2013-01-18 19:59:00,47.5,34.3,30.44,East,83,0.0,2.0,60,0.00,,,0.00,meteohub,2013-01-19 01:59:00,
2013-01-18 20:04:00,47.1,34.3,30.44,East,83,1.0,1.0,61,0.00,,,0.00,meteohub,2013-01-19 02:04:00,
2013-01-18 20:09:00,46.9,35.1,30.44,East,89,2.0,2.0,63,0.00,,,0.00,meteohub,2013-01-19 02:09:00,
2013-01-18 20:14:00,46.6,34.7,30.44,East,97,3.0,3.0,63,0.00,,,0.00,meteohub,2013-01-19 02:14:00,
2013-01-18 20:19:00,46.4,34.5,30.43,ENE,66,2.0,3.0,63,0.00,,,0.00,meteohub,2013-01-19 02:19:00,
2013-01-18 20:24:00,46.0,34.5,30.43,East,95,2.0,5.0,64,0.00,,,0.00,meteohub,2013-01-19 02:24:00,
2013-01-18 20:30:00,46.0,34.5,30.43,East,92,2.0,5.0,64,0.00,,,0.00,meteohub,2013-01-19 02:30:00,
2013-01-18 20:35:00,46.0,34.5,30.43,East,83,2.0,5.0,64,0.00,,,0.00,meteohub,2013-01-19 02:35:00,
2013-01-18 20:40:00,46.0,34.5,30.43,East,97,0.0,3.0,64,0.00,,,0.00,meteohub,2013-01-19 02:40:00,
2013-01-18 20:45:00,46.0,34.5,30.43,East,91,0.0,3.0,64,0.00,,,0.00,meteohub,2013-01-19 02:45:00,
2013-01-18 20:50:00,45.9,35.1,30.43,East,91,2.0,3.0,66,0.00,,,0.00,meteohub,2013-01-19 02:50:00,
2013-01-18 20:56:00,45.7,35.1,30.43,ESE,103,1.0,3.0,66,0.00,,,0.00,meteohub,2013-01-19 02:56:00,
2013-01-18 21:01:00,45.3,34.7,30.43,East,98,0.0,3.0,66,0.00,,,0.00,meteohub,2013-01-19 03:01:00,
2013-01-18 21:06:00,45.3,34.7,30.43,East,81,1.0,3.0,66,0.00,,,0.00,meteohub,2013-01-19 03:06:00,
2013-01-18 21:11:00,45.3,34.7,30.43,East,82,0.0,3.0,66,0.00,,,0.00,meteohub,2013-01-19 03:11:00,
2013-01-18 21:16:00,45.1,34.5,30.43,East,82,0.0,3.0,66,0.00,,,0.00,meteohub,2013-01-19 03:16:00,
2013-01-18 21:21:00,45.0,34.3,30.43,East,81,1.0,2.0,66,0.00,,,0.00,meteohub,2013-01-19 03:21:00,
2013-01-18 21:27:00,45.0,34.3,30.43,East,82,0.0,2.0,66,0.00,,,0.00,meteohub,2013-01-19 03:27:00,
2013-01-18 21:32:00,44.8,34.5,30.43,East,82,1.0,2.0,67,0.00,,,0.00,meteohub,2013-01-19 03:32:00,
2013-01-18 21:37:00,44.4,34.2,30.43,East,82,1.0,2.0,67,0.00,,,0.00,meteohub,2013-01-19 03:37:00,
2013-01-18 21:42:00,44.2,34.0,30.43,East,82,0.0,2.0,67,0.00,,,0.00,meteohub,2013-01-19 03:42:00,
2013-01-18 21:47:00,44.1,34.2,30.43,East,82,2.0,2.0,68,0.00,,,0.00,meteohub,2013-01-19 03:47:00,
2013-01-18 21:52:00,44.1,34.2,30.43,East,82,1.0,2.0,68,0.00,,,0.00,meteohub,2013-01-19 03:52:00,
2013-01-18 21:57:00,43.9,34.3,30.43,East,85,1.0,2.0,69,0.00,,,0.00,meteohub,2013-01-19 03:57:00,
2013-01-18 22:02:00,43.9,34.0,30.43,ENE,67,1.0,3.0,68,0.00,,,0.00,meteohub,2013-01-19 04:02:00,
2013-01-18 22:07:00,43.7,34.2,30.42,East,83,1.0,3.0,69,0.00,,,0.00,meteohub,2013-01-19 04:07:00,
2013-01-18 22:12:00,43.7,34.2,30.42,ENE,70,1.0,3.0,69,0.00,,,0.00,meteohub,2013-01-19 04:12:00,
2013-01-18 22:17:00,43.5,34.0,30.42,ENE,66,2.0,3.0,69,0.00,,,0.00,meteohub,2013-01-19 04:17:00,
2013-01-18 22:23:00,43.5,34.0,30.42,East,98,3.0,3.0,69,0.00,,,0.00,meteohub,2013-01-19 04:23:00,
2013-01-18 22:28:00,43.3,34.5,30.42,East,91,2.0,3.0,71,0.00,,,0.00,meteohub,2013-01-19 04:28:00,
2013-01-18 22:33:00,43.2,34.3,30.41,East,90,3.0,5.0,71,0.00,,,0.00,meteohub,2013-01-19 04:33:00,
2013-01-18 22:38:00,43.3,34.5,30.41,East,90,2.0,5.0,71,0.00,,,0.00,meteohub,2013-01-19 04:38:00,
2013-01-18 22:44:00,43.3,34.2,30.41,East,88,2.0,6.0,70,0.00,,,0.00,meteohub,2013-01-19 04:44:00,
2013-01-18 22:49:00,43.3,33.8,30.41,ENE,77,2.0,6.0,69,0.00,,,0.00,meteohub,2013-01-19 04:49:00,
2013-01-18 22:54:00,43.5,34.0,30.41,East,89,1.0,4.0,69,0.00,,,0.00,meteohub,2013-01-19 04:54:00,
2013-01-18 22:59:00,43.5,34.0,30.41,East,95,1.0,3.0,69,0.00,,,0.00,meteohub,2013-01-19 04:59:00,
2013-01-18 23:02:00,43.3,33.8,30.41,East,80,2.0,3.0,69,0.00,,,0.00,meteohub,2013-01-19 05:02:00,
2013-01-18 23:03:00,43.5,34.0,30.41,East,87,0.0,3.0,69,0.00,,,0.00,meteohub,2013-01-19 05:03:00,
2013-01-18 23:04:00,43.3,33.8,30.41,East,90,1.0,3.0,69,0.00,,,0.00,meteohub,2013-01-19 05:04:00,
2013-01-18 23:05:00,43.3,33.8,30.41,East,87,2.0,3.0,69,0.00,,,0.00,meteohub,2013-01-19 05:05:00,
2013-01-18 23:10:00,43.2,34.0,30.41,East,87,1.0,3.0,70,0.00,,,0.00,meteohub,2013-01-19 05:10:00,
2013-01-18 23:15:00,43.0,33.8,30.41,East,93,1.0,3.0,70,0.00,,,0.00,meteohub,2013-01-19 05:15:00,
2013-01-18 23:21:00,43.0,33.8,30.41,East,92,0.0,3.0,70,0.00,,,0.00,meteohub,2013-01-19 05:21:00,
2013-01-18 23:26:00,42.6,33.8,30.41,ENE,75,1.0,3.0,71,0.00,,,0.00,meteohub,2013-01-19 05:26:00,
2013-01-18 23:31:00,42.4,33.6,30.41,ENE,75,1.0,2.0,71,0.00,,,0.00,meteohub,2013-01-19 05:31:00,
2013-01-18 23:36:00,42.3,33.3,30.41,ENE,75,0.0,2.0,70,0.00,,,0.00,meteohub,2013-01-19 05:36:00,
2013-01-18 23:41:00,42.1,33.8,30.41,East,85,1.0,3.0,72,0.00,,,0.00,meteohub,2013-01-19 05:41:00,
2013-01-18 23:47:00,41.7,33.4,30.40,East,89,5.0,5.0,72,0.00,,,0.00,meteohub,2013-01-19 05:47:00,
2013-01-18 23:52:00,42.1,33.8,30.40,East,92,2.0,6.0,72,0.00,,,0.00,meteohub,2013-01-19 05:52:00,
2013-01-18 23:57:00,42.3,33.6,30.40,East,92,5.0,6.0,71,0.00,,,0.00,meteohub,2013-01-19 05:57:00,